Location: Bauerbach
(50.4985°N, 10.3912°E)
Time: 02:03:25
(UTC+00:00)

Cosmos 1484 Rocket - Pass Details

Date: 13 January 2026
Orbit: 439 x 468 km, 97.6° (Epoch: 6 February)

Event Time Altitude Azimuth Distance (km) Brightness Sun altitude
Rises 04:44:47 0° 22° (NNE) 2,449 6.3 -23.0°
Reaches altitude 10° 04:46:58 10° 33° (NNE) 1,577 5.5 -22.7°
Maximum altitude 04:50:00 30° 97° (E) 823 4.4 -22.2°
Drops below altitude 10° 04:53:02 10° 161° (SSE) 1,577 5.5 -21.7°
Sets 04:55:13 0° 172° (S) 2,450 6.3 -21.4°
